OBJECT B

Satellite information

Favourite Embed

Satellite Type and Status

UNKNOWNIN ORBIT

Key statistics

Satellite OBJECT B at a glance.

Uptime

556

Days in orbit

Revolutions

≈ 15.2

Per day

Orbit

SSO

Sun Synchronous Orbit

Inclination

97.6

Latest

Satellite identification and parameters

Extended collection of information and parameters for OBJECT B.

Object identification

Identified? True

Debris? False

Object name: OBJECT B

International designator: 2024-110B

Object number (NORAD): 60013

Object ID (CCSDS): 60013

Country: PEOPLES REPUBLIC OF CHINA (PRC)

Current information (Y/N): Y

RCS size: MEDIUM

Orbital parameters

Period: 94.789 minutes

Inclination: 97.5785 deg

SMA: 6886.489 km

Apoapsis: 516.491 km

Periapsis: 500.218 km

RAAN: 77.7069 deg

Eccentricy: 0.00118154

Argument of periapsis: 170.197 deg

Mean anomaly: 189.9497 deg

Mean motion: 15.19168541 rev/day

Mean motion (dot): 0.00010061 rev/day2

B* drag term: 0.0004806699 1/REarth

Two-line elements (TLE)

Creation date: Dec. 14, 2025, 3:07 a.m.

Reference frame: TEME

Reference center: EARTH

Epoch: Dec. 13, 2025, 4:53 p.m. UTC

TLE line 0: 0 OBJECT B

TLE line 1: 1 60013U 24110B 25347.70415520 .00010061 00000-0 48067-3 0 9999

TLE line 2: 2 60013 97.5785 77.7069 0011815 170.1970 189.9497 15.19168541 83997

Live tracking on map

Real-time ground track for satellite OBJECT B.

In-orbit conjunctions

There are no conjunctions computed for OBJECT B, at the moment. Check back to stay up to date, as we update our databases every day.

Go to all conjunctions

Associated space launch

Carried 3 satellites to polar orbit, details TBD: * TEE-01B *Naxing-3A/B

OBJECT B was lifted into orbit during the mission ‘Ceres-1 | 3 satellites’, on board a Ceres-1 space rocket.

The launch took place on June 6, 2024, 5 a.m. from Launch Area 95A.

For more information about the launch, click the button.

Launch to space Ceres-1 | 3 satellites
Ceres-1 | 3 satellites

Agency: N/A

Status: Launch Successful

Launch date: June 6, 2024, 5 a.m. UTC

Rocket: Ceres-1

Launch pad: Launch Area 95A

Location: Jiuquan Satellite Launch Center, People's Republic of China

...

Latest news about this satellite

There are no fresh news available about this satellite. Check back as we update our databases every day.


Newsletter sign-up

Weekly statistics, charts and insights to help you stay on top of the space industry.